Location: Keppel Henge
(44.7900°N, 80.9447°W)
Time: 06:21:02
(UTC-05:00)

Vanguard 1 Rocket - Pass Details

Date: 29 October 2017
Orbit: 655 x 4222 km, 34.3° (Epoch: 23 November)

Event Time Altitude Azimuth Distance (km) Brightness Sun altitude
Rises 08:15:14 0° 258° (WSW) 5,716 11.0 2.0°
Reaches altitude 10° 08:20:01 10° 251° (WSW) 4,108 10.3 2.8°
Maximum altitude 08:28:37 37° 189° (S) 1,702 9.0 4.2°
Drops below altitude 10° 08:33:49 10° 123° (ESE) 2,462 12.1 5.0°
Sets 08:35:59 0° 114° (ESE) 3,209 13.2 5.4°
